Date String (YYYY-MM-DD hh:mm:ss) UTC,Instrument flags,Ambient pressure (hPa),Sample flow (lpm),Bypass flow (lpm),Sample temperature (°C),Ambient temperature (°C),ASC tube jacket temperature (°C),LED temperature (°C),Box temperature (°C),Sample RH (%),Span deviation,Mass concentration (μg/m³),Mass concentration (μg/m³),Mass concentration (μg/m³)
DateTimeUTC,F1_M11,P_M11,Q1_M11,Q2_M11,T1_M11,T2_M11,T3_M11,T4_M11,T5_M11,U1_M11,ZSPAN_M11,X0_M11,X2_M11,X1_M11
2023-02-04 20:00:00,,0824.4,5.03,0.00,23.6,22.3,00.0,32.4,25.3,08.6,0000.0,0003.21,0001.15,0000.48
2023-02-04 20:01:00,,0824.4,5.00,0.00,23.6,22.3,00.0,32.4,25.3,09.0,0000.0,0003.06,0001.14,0000.48
2023-02-04 20:02:00,,0824.5,4.97,0.00,23.6,22.3,00.0,32.4,25.2,09.2,0000.0,0002.88,0001.11,0000.48
2023-02-04 20:03:00,,0824.4,5.02,0.00,23.6,22.3,00.0,32.4,25.3,09.2,0000.0,0002.75,0001.07,0000.47
2023-02-04 20:04:00,,0824.3,5.01,0.00,23.6,22.3,00.0,32.4,25.3,09.0,0000.0,0002.74,0001.07,0000.47
2023-02-04 20:05:00,,0824.3,4.97,0.00,23.6,22.3,00.0,32.4,25.3,09.7,0000.0,0002.63,0001.05,0000.47
2023-02-04 20:06:00,,0824.3,5.01,0.00,23.6,22.3,00.0,32.4,25.3,09.2,0000.0,0002.30,0000.97,0000.46
2023-02-04 20:07:00,,0824.3,5.03,0.00,23.6,22.3,00.0,32.4,25.3,09.3,0000.0,0002.25,0000.93,0000.45
2023-02-04 20:08:00,,0824.2,5.00,0.00,23.6,22.3,00.0,32.4,25.3,09.0,0000.0,0001.92,0000.85,0000.44
2023-02-04 20:09:00,,0824.2,4.99,0.00,23.6,22.3,00.0,32.4,25.3,08.9,0000.0,0001.69,0000.79,0000.42
2023-02-04 20:10:00,,0824.3,4.97,0.00,23.6,22.3,00.0,32.4,25.3,08.1,0000.0,0001.61,0000.75,0000.41
2023-02-04 20:11:00,,0824.3,5.01,0.00,23.6,22.3,00.0,32.4,25.3,08.2,0000.0,0001.63,0000.76,0000.39
2023-02-04 20:12:00,,0824.2,5.02,0.00,23.6,22.3,00.0,32.4,25.4,08.7,0000.0,0001.69,0000.76,0000.39
2023-02-04 20:13:00,,0824.2,5.01,0.00,23.6,22.3,00.0,32.4,25.4,08.7,0000.0,0001.68,0000.75,0000.39
2023-02-04 20:14:00,,0824.3,4.95,0.00,23.6,22.3,00.0,32.4,25.4,08.5,0000.0,0001.75,0000.77,0000.39
2023-02-04 20:15:00,,0824.3,5.02,0.00,23.6,22.3,00.0,32.4,25.3,07.8,0000.0,0001.81,0000.78,0000.40
2023-02-04 20:16:00,,0824.4,5.02,0.00,23.6,22.3,00.0,32.4,25.3,07.9,0000.0,0001.96,0000.82,0000.40
2023-02-04 20:17:00,,0824.5,4.99,0.00,23.6,22.3,00.0,32.4,25.3,08.4,0000.0,0002.11,0000.85,0000.40
2023-02-04 20:18:00,,0824.4,4.97,0.00,23.6,22.4,00.0,32.4,25.4,09.3,0000.0,0002.29,0000.92,0000.41
2023-02-04 20:19:00,,0824.4,5.03,0.00,23.6,22.4,00.0,32.4,25.4,08.8,0000.0,0002.40,0000.96,0000.42
2023-02-04 20:20:00,,0824.5,5.03,0.00,23.6,22.4,00.0,32.4,25.4,09.4,0000.0,0002.44,0000.99,0000.43
2023-02-04 20:21:00,,0824.7,4.94,0.00,23.6,22.4,00.0,32.4,25.4,09.0,0000.0,0002.49,0001.02,0000.44
2023-02-04 20:22:00,,0824.6,5.04,0.00,23.6,22.4,00.0,32.4,25.4,08.9,0000.0,0002.55,0001.01,0000.45
2023-02-04 20:23:00,,0824.5,5.00,0.00,23.6,22.4,00.0,32.5,25.4,08.7,0000.0,0002.71,0000.98,0000.45
2023-02-04 20:24:00,,0824.7,4.97,0.00,23.7,22.4,00.0,32.5,25.4,09.3,0000.0,0003.29,0001.02,0000.46
2023-02-04 20:25:00,,0824.5,4.99,0.00,23.7,22.4,00.0,32.5,25.4,08.6,0000.0,0003.17,0000.97,0000.45
2023-02-04 20:26:00,,0824.6,5.03,0.00,23.7,22.4,00.0,32.5,25.4,08.9,0000.0,0003.06,0000.93,0000.44
2023-02-04 20:27:00,,0824.7,5.02,0.00,23.7,22.4,00.0,32.5,25.4,08.5,0000.0,0003.24,0000.93,0000.43
2023-02-04 20:28:00,,0824.6,4.96,0.00,23.7,22.4,00.0,32.5,25.5,08.5,0000.0,0003.09,0000.91,0000.43
2023-02-04 20:29:00,,0824.7,5.01,0.00,23.7,22.4,00.0,32.5,25.4,08.2,0000.0,0002.89,0000.89,0000.42
2023-02-04 20:30:00,,0824.8,5.04,0.00,23.7,22.4,00.0,32.5,25.5,09.0,0000.0,0002.73,0000.86,0000.41
2023-02-04 20:31:00,,0824.7,4.95,0.00,23.7,22.4,00.0,32.5,25.4,08.6,0000.0,0002.72,0000.86,0000.41
2023-02-04 20:32:00,,0824.7,5.03,0.00,23.7,22.5,00.0,32.5,25.5,07.9,0000.0,0002.79,0000.88,0000.40
2023-02-04 20:33:00,,0824.6,5.03,0.00,23.7,22.5,00.0,32.5,25.5,08.7,0000.0,0002.74,0000.93,0000.40
2023-02-04 20:34:00,,0824.9,4.95,0.00,23.7,22.5,00.0,32.5,25.5,07.7,0000.0,0002.46,0000.92,0000.40
2023-02-04 20:35:00,,0824.8,5.02,0.00,23.7,22.5,00.0,32.5,25.5,07.8,0000.0,0001.91,0000.89,0000.39
2023-02-04 20:36:00,,0824.9,5.01,0.00,23.7,22.5,00.0,32.5,25.5,08.6,0000.0,0002.06,0000.92,0000.39
2023-02-04 20:37:00,,0824.8,4.99,0.00,23.7,22.5,00.0,32.5,25.5,09.0,0000.0,0002.22,0000.96,0000.40
2023-02-04 20:38:00,,0824.9,4.98,0.00,23.7,22.5,00.0,32.5,25.5,08.1,0000.0,0001.89,0000.92,0000.40
2023-02-04 20:39:00,,0824.8,5.03,0.00,23.7,22.5,00.0,32.5,25.5,08.1,0000.0,0002.01,0000.92,0000.40
2023-02-04 20:40:00,,0824.8,5.02,0.00,23.7,22.5,00.0,32.5,25.5,08.3,0000.0,0002.06,0000.90,0000.40
2023-02-04 20:41:00,,0824.9,4.96,0.00,23.7,22.5,00.0,32.6,25.5,08.5,0000.0,0002.03,0000.89,0000.40
2023-02-04 20:42:00,,0825.0,5.00,0.00,23.7,22.5,00.0,32.6,25.5,08.3,0000.0,0002.08,0000.85,0000.40
2023-02-04 20:43:00,,0824.9,5.02,0.00,23.7,22.5,00.0,32.6,25.5,08.5,0000.0,0002.00,0000.80,0000.39
2023-02-04 20:44:00,,0824.9,4.96,0.00,23.7,22.5,00.0,32.6,25.5,08.5,0000.0,0001.92,0000.76,0000.40
2023-02-04 20:45:00,,0825.0,5.00,0.00,23.8,22.5,00.0,32.6,25.5,08.7,0000.0,0001.95,0000.78,0000.40
2023-02-04 20:46:00,,0825.0,5.01,0.00,23.8,22.5,00.0,32.6,25.5,08.1,0000.0,0001.90,0000.77,0000.40
2023-02-04 20:47:00,,0825.0,5.01,0.00,23.8,22.5,00.0,32.6,25.5,08.1,0000.0,0001.98,0000.75,0000.40
2023-02-04 20:48:00,,0824.9,4.98,0.00,23.8,22.5,00.0,32.6,25.5,08.6,0000.0,0002.09,0000.73,0000.41
2023-02-04 20:49:00,,0824.9,4.99,0.00,23.8,22.5,00.0,32.6,25.5,08.2,0000.0,0002.27,0000.75,0000.41
2023-02-04 20:50:00,,0824.9,5.02,0.00,23.8,22.5,00.0,32.6,25.5,08.7,0000.0,0002.15,0000.72,0000.41
2023-02-04 20:51:00,,0824.9,5.00,0.00,23.8,22.5,00.0,32.6,25.5,09.4,0000.0,0002.09,0000.71,0000.40
2023-02-04 20:52:00,,0824.9,4.95,0.00,23.8,22.5,00.0,32.6,25.5,08.5,0000.0,0002.01,0000.68,0000.40
2023-02-04 20:53:00,,0824.9,5.03,0.00,23.8,22.5,00.0,32.6,25.5,08.5,0000.0,0001.93,0000.69,0000.41
2023-02-04 20:54:00,,0824.9,5.02,0.00,23.8,22.5,00.0,32.6,25.5,07.9,0000.0,0002.07,0000.70,0000.42
2023-02-04 20:55:00,,0824.9,4.98,0.00,23.8,22.5,00.0,32.6,25.5,08.5,0000.0,0002.16,0000.70,0000.42
2023-02-04 20:56:00,,0824.8,4.98,0.00,23.8,22.6,00.0,32.6,25.5,08.0,0000.0,0002.21,0000.68,0000.42
2023-02-04 20:57:00,,0824.9,5.02,0.00,23.8,22.6,00.0,32.6,25.5,08.4,0000.0,0002.39,0000.71,0000.44
2023-02-04 20:58:00,,0824.9,5.02,0.00,23.8,22.6,00.0,32.6,25.5,08.3,0000.0,0002.20,0000.73,0000.44
2023-02-04 20:59:00,,0824.9,4.96,0.00,23.8,22.6,00.0,32.6,25.5,08.4,0000.0,0001.99,0000.75,0000.44
